When you browse on this site, cookies collect data to enhance your experience and personalize the content and advertising you see.
Visit our Privacy Policy to learn more. By continuing to use the site, you agree to this use of cookies and data.
  • In Italy
  • List of Countries
  • For 7 days
  • Water Temperature
  • Satellite Maps
  • Weather Map
  • Weather Widgets
  • user-avatar
    Login

    Hourly Weather Czarnowko

    Today, 17 January, Thursday

    Time Temperature Precipitation Wind Pressure Humidity
    00:00 +3°C° 0 mm 7 mps 745 mmHg 82%
    01:00 +3°C° 0 mm 6 mps 745 mmHg 81%
    02:00 +3°C° 0.1 mm 6 mps 744 mmHg 81%
    03:00 +2°C° 0.1 mm 7 mps 743 mmHg 81%
    04:00 +2°C° 0.1 mm 7 mps 743 mmHg 82%
    05:00 +2°C° 0.6 mm 7 mps 742 mmHg 82%
    06:00 +2°C° 0.6 mm 7 mps 742 mmHg 82%
    07:00 +2°C° 0.6 mm 7 mps 742 mmHg 82%
    08:00 +2°C° 0.6 mm 7 mps 742 mmHg 83%
    09:00 +1°C° 0.6 mm 8 mps 742 mmHg 84%
    10:00 +2°C° 0.6 mm 8 mps 742 mmHg 84%
    11:00 +2°C° 0.1 mm 8 mps 743 mmHg 81%
    12:00 +2°C° 0.1 mm 8 mps 743 mmHg 77%
    13:00 +2°C° 0.1 mm 8 mps 743 mmHg 74%
    14:00 +2°C° 0.1 mm 8 mps 743 mmHg 74%
    15:00 +2°C° 0.1 mm 8 mps 744 mmHg 74%
    16:00 +3°C° 0.1 mm 7 mps 744 mmHg 74%
    17:00 +2°C° 0 mm 7 mps 744 mmHg 74%
    18:00 +2°C° 0 mm 7 mps 744 mmHg 75%
    19:00 +2°C° 0 mm 7 mps 744 mmHg 75%
    20:00 +2°C° 0 mm 6 mps 744 mmHg 77%
    21:00 +1°C° 0 mm 6 mps 744 mmHg 78%
    22:00 +1°C° 0 mm 5 mps 744 mmHg 79%
    23:00 +1°C° 0.1 mm 4 mps 745 mmHg 82%

    Tomorrow, 18 January, Friday

    Time Temperature Precipitation Wind Pressure Humidity
    00:00 +2°C° 0.1 mm 3 mps 745 mmHg 84%
    01:00 +2°C° 0.1 mm 3 mps 745 mmHg 86%
    02:00 +1°C° 0.4 mm 3 mps 745 mmHg 87%
    03:00 0°C° 0.4 mm 4 mps 746 mmHg 88%
    04:00 -1°C° 0.4 mm 4 mps 746 mmHg 88%
    05:00 -1°C° 1.2 mm 5 mps 747 mmHg 85%
    06:00 -2°C° 1.2 mm 6 mps 748 mmHg 81%
    07:00 -3°C° 1.2 mm 7 mps 749 mmHg 77%
    08:00 -3°C° 0 mm 7 mps 751 mmHg 76%
    09:00 -3°C° 0 mm 6 mps 752 mmHg 74%
    10:00 -2°C° 0 mm 5 mps 753 mmHg 73%
    11:00 -3°C° 0 mm 6 mps 754 mmHg 73%
    12:00 -2°C° 0 mm 6 mps 755 mmHg 73%
    13:00 -2°C° 0 mm 6 mps 756 mmHg 74%
    14:00 -2°C° 0 mm 5 mps 756 mmHg 73%
    15:00 -2°C° 0 mm 4 mps 757 mmHg 72%
    16:00 -2°C° 0 mm 4 mps 757 mmHg 71%
    17:00 -3°C° 0 mm 4 mps 758 mmHg 70%
    18:00 -2°C° 0 mm 3 mps 758 mmHg 69%
    19:00 -2°C° 0 mm 3 mps 759 mmHg 68%
    20:00 -2°C° 0 mm 3 mps 759 mmHg 70%
    21:00 -2°C° 0 mm 3 mps 759 mmHg 72%
    22:00 -2°C° 0 mm 3 mps 760 mmHg 74%
    23:00 -2°C° 0 mm 3 mps 760 mmHg 78%

    Day after tomorrow, 19 January, Saturday

    Time Temperature Precipitation Wind Pressure Humidity
    00:00 -2°C° 0 mm 3 mps 760 mmHg 83%
    01:00 -3°C° 0 mm 4 mps 760 mmHg 87%
    02:00 -3°C° 0 mm 4 mps 760 mmHg 88%
    03:00 -4°C° 0 mm 4 mps 760 mmHg 88%
    04:00 -4°C° 0 mm 4 mps 760 mmHg 89%
    05:00 -3°C° 0 mm 4 mps 760 mmHg 88%
    06:00 -3°C° 0 mm 4 mps 760 mmHg 87%
    07:00 -3°C° 0 mm 4 mps 760 mmHg 86%
    08:00 -2°C° 0 mm 4 mps 761 mmHg 84%
    09:00 -2°C° 0 mm 4 mps 761 mmHg 83%
    10:00 -1°C° 0 mm 4 mps 761 mmHg 81%
    11:00 -1°C° 0 mm 4 mps 761 mmHg 80%
    12:00 0°C° 0 mm 4 mps 761 mmHg 80%
    13:00 0°C° 0 mm 5 mps 761 mmHg 80%
    14:00 0°C° 0 mm 4 mps 761 mmHg 82%
    15:00 0°C° 0 mm 4 mps 761 mmHg 84%
    16:00 0°C° 0 mm 3 mps 761 mmHg 85%
    17:00 -1°C° 0 mm 4 mps 761 mmHg 87%
    18:00 -1°C° 0 mm 4 mps 761 mmHg 88%
    19:00 -1°C° 0 mm 4 mps 761 mmHg 89%
    20:00 -2°C° 0 mm 4 mps 761 mmHg 89%
    21:00 -2°C° 0 mm 4 mps 762 mmHg 88%
    22:00 -2°C° 0 mm 4 mps 762 mmHg 88%
    23:00 -2°C° 0 mm 3 mps 762 mmHg 87%

    20 January, Sunday

    Time Temperature Precipitation Wind Pressure Humidity
    00:00 -2°C° 0 mm 3 mps 762 mmHg 86%
    01:00 -2°C° 0 mm 3 mps 762 mmHg 86%
    02:00 -2°C° 0 mm 3 mps 761 mmHg 85%
    03:00 -2°C° 0 mm 3 mps 761 mmHg 85%
    04:00 -2°C° 0 mm 3 mps 761 mmHg 84%
    05:00 -2°C° 0 mm 3 mps 761 mmHg 85%
    06:00 -2°C° 0 mm 3 mps 761 mmHg 86%
    07:00 -2°C° 0 mm 3 mps 761 mmHg 87%
    08:00 -2°C° 0 mm 3 mps 761 mmHg 87%
    09:00 -2°C° 0 mm 3 mps 761 mmHg 86%
    10:00 -1°C° 0 mm 3 mps 761 mmHg 86%
    11:00 -1°C° 0 mm 3 mps 761 mmHg 85%
    12:00 0°C° 0 mm 3 mps 761 mmHg 83%
    13:00 0°C° 0 mm 3 mps 761 mmHg 82%
    14:00 0°C° 0 mm 3 mps 761 mmHg 84%
    15:00 0°C° 0 mm 3 mps 761 mmHg 86%
    16:00 0°C° 0 mm 3 mps 761 mmHg 89%
    17:00 0°C° 0 mm 3 mps 761 mmHg 88%
    18:00 0°C° 0 mm 3 mps 761 mmHg 88%
    19:00 0°C° 0 mm 3 mps 761 mmHg 87%
    20:00 0°C° 0 mm 3 mps 762 mmHg 87%
    21:00 -1°C° 0 mm 3 mps 762 mmHg 87%
    22:00 -1°C° 0 mm 2 mps 762 mmHg 87%
    23:00 -1°C° 0 mm 2 mps 762 mmHg 88%

    21 January, Monday

    Time Temperature Precipitation Wind Pressure Humidity
    00:00 -1°C° 0 mm 2 mps 763 mmHg 88%
    01:00 -1°C° 0 mm 2 mps 763 mmHg 88%
    02:00 +1°C° 0 mm 1 mps 763 mmHg 89%
    03:00 0°C° 0 mm 1 mps 763 mmHg 89%
    04:00 0°C° 0 mm 1 mps 763 mmHg 89%
    05:00 0°C° 0 mm 1 mps 763 mmHg 90%
    06:00 0°C° 0 mm 1 mps 763 mmHg 90%
    07:00 0°C° 0 mm 1 mps 763 mmHg 90%
    08:00 0°C° 0 mm 1 mps 763 mmHg 89%
    09:00 +1°C° 0 mm 1 mps 764 mmHg 87%
    10:00 +1°C° 0 mm 1 mps 764 mmHg 86%
    11:00 +1°C° 0 mm 1 mps 764 mmHg 84%
    12:00 +2°C° 0 mm 1 mps 764 mmHg 82%
    13:00 +2°C° 0 mm 1 mps 764 mmHg 80%
    14:00 +2°C° 0 mm 1 mps 763 mmHg 82%
    15:00 +1°C° 0 mm 1 mps 763 mmHg 85%
    16:00 0°C° 0 mm 1 mps 763 mmHg 87%
    17:00 0°C° 0 mm 1 mps 763 mmHg 87%
    18:00 -2°C° 0 mm 2 mps 763 mmHg 88%
    19:00 -2°C° 0 mm 2 mps 763 mmHg 89%
    20:00 -2°C° 0 mm 2 mps 763 mmHg 89%
    21:00 -3°C° 0 mm 2 mps 763 mmHg 89%
    22:00 -3°C° 0 mm 2 mps 763 mmHg 89%
    23:00 -3°C° 0 mm 2 mps 762 mmHg 89%

    22 January, Tuesday

    Time Temperature Precipitation Wind Pressure Humidity
    00:00 -3°C° 0 mm 2 mps 762 mmHg 89%
    01:00 -3°C° 0 mm 2 mps 762 mmHg 88%
    02:00 -3°C° 0 mm 2 mps 761 mmHg 87%
    03:00 -3°C° 0 mm 2 mps 761 mmHg 87%
    04:00 -3°C° 0 mm 2 mps 761 mmHg 86%
    05:00 -4°C° 0 mm 3 mps 761 mmHg 85%
    06:00 -4°C° 0 mm 3 mps 760 mmHg 85%
    07:00 -5°C° 0 mm 3 mps 760 mmHg 85%
    08:00 -4°C° 0 mm 3 mps 760 mmHg 83%
    09:00 -4°C° 0 mm 3 mps 760 mmHg 81%
    10:00 -4°C° 0 mm 4 mps 760 mmHg 79%
    11:00 -3°C° 0 mm 4 mps 760 mmHg 77%
    12:00 -3°C° 0 mm 4 mps 760 mmHg 74%
    13:00 -2°C° 0 mm 4 mps 760 mmHg 72%
    14:00 -3°C° 0 mm 4 mps 759 mmHg 75%
    15:00 -2°C° 0 mm 3 mps 759 mmHg 78%
    16:00 -2°C° 0 mm 3 mps 759 mmHg 81%
    17:00 -4°C° 0 mm 3 mps 759 mmHg 83%
    18:00 -4°C° 0 mm 3 mps 759 mmHg 84%
    19:00 -4°C° 0 mm 3 mps 759 mmHg 85%
    20:00 -4°C° 0 mm 3 mps 759 mmHg 84%
    21:00 -4°C° 0 mm 3 mps 759 mmHg 83%
    22:00 -5°C° 0 mm 3 mps 759 mmHg 83%
    23:00 -5°C° 0 mm 3 mps 759 mmHg 81%
    Show more